Year,Month,Day,Hour,Minute,Value (Times are PST for temperature in C)
2006,04,24,00,00,8.20
2006,04,24,00,01,8.20
2006,04,24,00,02,8.10
2006,04,24,00,03,8.10
2006,04,24,00,04,8.10
2006,04,24,00,05,8.10
2006,04,24,00,06,8.10
2006,04,24,00,07,8.00
2006,04,24,00,08,8.00
2006,04,24,00,09,8.00
2006,04,24,00,10,7.90
2006,04,24,00,11,7.90
2006,04,24,00,12,7.90
2006,04,24,00,13,7.80
2006,04,24,00,14,7.80
2006,04,24,00,15,7.80
2006,04,24,00,16,7.80
2006,04,24,00,17,7.80
2006,04,24,00,18,7.80
2006,04,24,00,19,7.70
2006,04,24,00,20,7.70
2006,04,24,00,21,7.70
2006,04,24,00,22,7.60
2006,04,24,00,23,7.60
2006,04,24,00,24,7.60
2006,04,24,00,25,7.60
2006,04,24,00,26,7.50
2006,04,24,00,27,7.50
2006,04,24,00,28,7.50
2006,04,24,00,29,7.50
2006,04,24,00,30,7.50
2006,04,24,00,31,7.40
2006,04,24,00,32,7.40
2006,04,24,00,33,7.40
2006,04,24,00,34,7.40
2006,04,24,00,35,7.30
2006,04,24,00,36,7.30
2006,04,24,00,37,7.30
2006,04,24,00,38,7.30
2006,04,24,00,39,7.30
2006,04,24,00,40,7.30
2006,04,24,00,41,7.30
2006,04,24,00,42,7.20
2006,04,24,00,43,7.20
2006,04,24,00,44,7.10
2006,04,24,00,45,7.10
2006,04,24,00,46,7.10
2006,04,24,00,47,7.10
2006,04,24,00,48,7.00
2006,04,24,00,49,7.00
2006,04,24,00,50,7.00
2006,04,24,00,51,6.90
2006,04,24,00,52,6.90
2006,04,24,00,53,6.90
2006,04,24,00,54,6.90
2006,04,24,00,55,6.80
2006,04,24,00,56,6.80
2006,04,24,00,57,6.80
2006,04,24,00,58,6.80
2006,04,24,00,59,6.80
2006,04,24,01,00,6.80
2006,04,24,01,01,6.80
2006,04,24,01,02,6.80
2006,04,24,01,03,6.80
2006,04,24,01,04,6.80
2006,04,24,01,05,6.80
2006,04,24,01,06,6.80
2006,04,24,01,07,6.80
2006,04,24,01,08,6.70
2006,04,24,01,09,6.70
2006,04,24,01,10,6.70
2006,04,24,01,11,6.70
2006,04,24,01,12,6.70
2006,04,24,01,13,6.60
2006,04,24,01,14,6.60
2006,04,24,01,15,6.60
2006,04,24,01,16,6.60
2006,04,24,01,17,6.50
2006,04,24,01,18,6.40
2006,04,24,01,19,6.40
2006,04,24,01,20,6.40
2006,04,24,01,21,6.40
2006,04,24,01,22,6.40
2006,04,24,01,23,6.30
2006,04,24,01,24,6.30
2006,04,24,01,25,6.30
2006,04,24,01,26,6.30
2006,04,24,01,27,6.20
2006,04,24,01,28,6.20
2006,04,24,01,29,6.20
2006,04,24,01,30,6.20
2006,04,24,01,31,6.20
2006,04,24,01,32,6.20
2006,04,24,01,33,6.20
2006,04,24,01,34,6.10
2006,04,24,01,35,6.10
2006,04,24,01,36,6.10
2006,04,24,01,37,6.10
2006,04,24,01,38,6.10
2006,04,24,01,39,6.00
2006,04,24,01,40,6.00
2006,04,24,01,41,6.00
2006,04,24,01,42,6.00
2006,04,24,01,43,5.90
2006,04,24,01,44,5.90
2006,04,24,01,45,5.90
2006,04,24,01,46,5.80
2006,04,24,01,47,5.80
2006,04,24,01,48,5.80
2006,04,24,01,49,5.70
2006,04,24,01,50,5.70
2006,04,24,01,51,5.70
2006,04,24,01,52,5.70
2006,04,24,01,53,5.70
2006,04,24,01,54,5.70
2006,04,24,01,55,5.60
2006,04,24,01,56,5.60
2006,04,24,01,57,5.60
2006,04,24,01,58,5.60
2006,04,24,01,59,5.50
2006,04,24,02,00,5.50
2006,04,24,02,01,5.50
2006,04,24,02,02,5.50
2006,04,24,02,03,5.40
2006,04,24,02,04,5.40
2006,04,24,02,05,5.40
2006,04,24,02,06,5.40
2006,04,24,02,07,5.40
2006,04,24,02,08,5.40
2006,04,24,02,09,5.40
2006,04,24,02,10,5.40
2006,04,24,02,11,5.40
2006,04,24,02,12,5.40
2006,04,24,02,13,5.40
2006,04,24,02,14,5.40
2006,04,24,02,15,5.40
2006,04,24,02,16,5.40
2006,04,24,02,17,5.40
2006,04,24,02,18,5.40
2006,04,24,02,19,5.30
2006,04,24,02,20,5.30
2006,04,24,02,21,5.30
2006,04,24,02,22,5.40
2006,04,24,02,23,5.40
2006,04,24,02,24,5.40
2006,04,24,02,25,5.40
2006,04,24,02,26,5.40
2006,04,24,02,27,5.40
2006,04,24,02,28,5.40
2006,04,24,02,29,5.50
2006,04,24,02,30,5.50
2006,04,24,02,31,5.50
2006,04,24,02,32,5.50
2006,04,24,02,33,5.40
2006,04,24,02,34,5.40
2006,04,24,02,35,5.40
2006,04,24,02,36,5.40
2006,04,24,02,37,5.40
2006,04,24,02,38,5.40
2006,04,24,02,39,5.40
2006,04,24,02,40,5.40
2006,04,24,02,41,5.40
2006,04,24,02,42,5.40
2006,04,24,02,43,5.40
2006,04,24,02,44,5.40
2006,04,24,02,45,5.40
2006,04,24,02,46,5.40
2006,04,24,02,47,5.40
2006,04,24,02,48,5.40
2006,04,24,02,49,5.40
2006,04,24,02,50,5.40
2006,04,24,02,51,5.40
2006,04,24,02,52,5.40
2006,04,24,02,53,5.40
2006,04,24,02,54,5.40
2006,04,24,02,55,5.50
2006,04,24,02,56,5.50
2006,04,24,02,57,5.50
2006,04,24,02,58,5.50
2006,04,24,02,59,5.50
2006,04,24,03,00,5.60
2006,04,24,03,01,5.60
2006,04,24,03,02,5.60
2006,04,24,03,03,5.60
2006,04,24,03,04,5.60
2006,04,24,03,05,5.60
2006,04,24,03,06,5.60
2006,04,24,03,07,5.60
2006,04,24,03,08,5.60
2006,04,24,03,09,5.60
2006,04,24,03,10,5.70
2006,04,24,03,11,5.70
2006,04,24,03,12,5.70
2006,04,24,03,13,5.70
2006,04,24,03,14,5.70
2006,04,24,03,15,5.70
2006,04,24,03,16,5.70
2006,04,24,03,17,5.70
2006,04,24,03,18,5.70
2006,04,24,03,19,5.80
2006,04,24,03,20,5.80
2006,04,24,03,21,5.80
2006,04,24,03,22,5.80
2006,04,24,03,23,5.80
2006,04,24,03,24,5.90
2006,04,24,03,25,5.90
2006,04,24,03,26,5.90
2006,04,24,03,27,5.90
2006,04,24,03,28,6.00
2006,04,24,03,29,5.90
2006,04,24,03,30,5.90
2006,04,24,03,31,5.90
2006,04,24,03,32,5.90
2006,04,24,03,33,5.80
2006,04,24,03,34,5.80
2006,04,24,03,35,5.70
2006,04,24,03,36,5.70
2006,04,24,03,37,5.70
2006,04,24,03,38,5.70
2006,04,24,03,39,5.70
2006,04,24,03,40,5.70
2006,04,24,03,41,5.70
2006,04,24,03,42,5.70
2006,04,24,03,43,5.70
2006,04,24,03,44,5.60
2006,04,24,03,45,5.60
2006,04,24,03,46,5.60
2006,04,24,03,47,5.60
2006,04,24,03,48,5.60
2006,04,24,03,49,5.60
2006,04,24,03,50,5.50
2006,04,24,03,51,5.50
2006,04,24,03,52,5.50
2006,04,24,03,53,5.50
2006,04,24,03,54,5.40
2006,04,24,03,55,5.40
2006,04,24,03,56,5.40
2006,04,24,03,57,5.40
2006,04,24,03,58,5.30
2006,04,24,03,59,5.30
2006,04,24,04,00,5.30
2006,04,24,04,01,5.30
2006,04,24,04,02,5.30
2006,04,24,04,03,5.30
2006,04,24,04,04,5.30
2006,04,24,04,05,5.20
2006,04,24,04,06,5.20
2006,04,24,04,07,5.20
2006,04,24,04,08,5.20
2006,04,24,04,09,5.20
2006,04,24,04,10,5.20
2006,04,24,04,11,5.20
2006,04,24,04,12,5.20
2006,04,24,04,13,5.20
2006,04,24,04,14,5.20
2006,04,24,04,15,5.20
2006,04,24,04,16,5.20
2006,04,24,04,17,5.20
2006,04,24,04,18,5.20
2006,04,24,04,19,5.20
2006,04,24,04,20,5.10
2006,04,24,04,21,5.10
2006,04,24,04,22,5.10
2006,04,24,04,23,5.10
2006,04,24,04,24,5.10
2006,04,24,04,25,5.10
2006,04,24,04,26,5.10
2006,04,24,04,27,5.10
2006,04,24,04,28,5.10
2006,04,24,04,29,5.10
2006,04,24,04,30,5.10
2006,04,24,04,31,5.10
2006,04,24,04,32,5.00
2006,04,24,04,33,5.00
2006,04,24,04,34,5.00
2006,04,24,04,35,4.90
2006,04,24,04,36,4.90
2006,04,24,04,37,4.90
2006,04,24,04,38,4.90
2006,04,24,04,39,4.90
2006,04,24,04,40,4.90
2006,04,24,04,41,4.90
2006,04,24,04,42,4.90
2006,04,24,04,43,4.90
2006,04,24,04,44,4.90
2006,04,24,04,45,4.90
2006,04,24,04,46,4.90
2006,04,24,04,47,4.90
2006,04,24,04,48,4.90
2006,04,24,04,49,4.90
2006,04,24,04,50,4.90
2006,04,24,04,51,4.90
2006,04,24,04,52,4.90
2006,04,24,04,53,4.90
2006,04,24,04,54,4.90
2006,04,24,04,55,4.90
2006,04,24,04,56,4.90
2006,04,24,04,57,4.90
2006,04,24,04,58,4.90
2006,04,24,04,59,4.90
2006,04,24,05,00,4.90
2006,04,24,05,01,4.90
2006,04,24,05,02,4.90
2006,04,24,05,03,4.90
2006,04,24,05,04,4.90
2006,04,24,05,05,4.90
2006,04,24,05,06,4.90
2006,04,24,05,07,4.90
2006,04,24,05,08,4.90
2006,04,24,05,09,4.90
2006,04,24,05,10,4.90
2006,04,24,05,11,4.90
2006,04,24,05,12,4.90
2006,04,24,05,13,4.90
2006,04,24,05,14,4.90
2006,04,24,05,15,4.90
2006,04,24,05,16,4.90
2006,04,24,05,17,4.90
2006,04,24,05,18,4.90
2006,04,24,05,19,4.80
2006,04,24,05,20,4.80
2006,04,24,05,21,4.80
2006,04,24,05,22,4.80
2006,04,24,05,23,4.80
2006,04,24,05,24,4.90
2006,04,24,05,25,4.90
2006,04,24,05,26,4.90
2006,04,24,05,27,4.90
2006,04,24,05,28,5.00
2006,04,24,05,29,5.10
2006,04,24,05,30,5.10
2006,04,24,05,31,5.10
2006,04,24,05,32,5.10
2006,04,24,05,33,5.10
2006,04,24,05,34,5.20
2006,04,24,05,35,5.20
2006,04,24,05,36,5.20
2006,04,24,05,37,5.20
2006,04,24,05,38,5.30
2006,04,24,05,39,5.30
2006,04,24,05,40,5.30
2006,04,24,05,41,5.30
2006,04,24,05,42,5.30
2006,04,24,05,43,5.30
2006,04,24,05,44,5.30
2006,04,24,05,45,5.30
2006,04,24,05,46,5.30
2006,04,24,05,47,5.30
2006,04,24,05,48,5.30
2006,04,24,05,49,5.30
2006,04,24,05,50,5.30
2006,04,24,05,51,5.30
2006,04,24,05,52,5.30
2006,04,24,05,53,5.30
2006,04,24,05,54,5.30
2006,04,24,05,55,5.30
2006,04,24,05,56,5.30
2006,04,24,05,57,5.30
2006,04,24,05,58,5.30
2006,04,24,05,59,5.30
2006,04,24,06,00,5.30
2006,04,24,06,01,5.30
2006,04,24,06,02,5.30
2006,04,24,06,03,5.30
2006,04,24,06,04,5.30
2006,04,24,06,05,5.30
2006,04,24,06,06,5.30
2006,04,24,06,07,5.30
2006,04,24,06,08,5.30
2006,04,24,06,09,5.20
2006,04,24,06,10,5.20
2006,04,24,06,11,5.20
2006,04,24,06,12,5.20
2006,04,24,06,13,5.20
2006,04,24,06,14,5.10
2006,04,24,06,15,5.10
2006,04,24,06,16,5.10
2006,04,24,06,17,5.10
2006,04,24,06,18,5.10
2006,04,24,06,19,4.90
2006,04,24,06,20,4.90
2006,04,24,06,21,4.90
2006,04,24,06,22,4.90
2006,04,24,06,23,4.90
2006,04,24,06,24,4.80
2006,04,24,06,25,4.80
2006,04,24,06,26,4.90
2006,04,24,06,27,4.90
2006,04,24,06,28,4.90
2006,04,24,06,29,4.90
2006,04,24,06,30,5.10
2006,04,24,06,31,5.10
2006,04,24,06,32,5.10
2006,04,24,06,33,5.20
2006,04,24,06,34,5.20
2006,04,24,06,35,5.30
2006,04,24,06,36,5.30
2006,04,24,06,37,5.50
2006,04,24,06,38,5.60
2006,04,24,06,39,5.60
2006,04,24,06,40,5.70
2006,04,24,06,41,5.70
2006,04,24,06,42,5.80
2006,04,24,06,43,5.80
2006,04,24,06,44,5.90
2006,04,24,06,45,5.90
2006,04,24,06,46,5.90
2006,04,24,06,47,6.00
2006,04,24,06,48,6.00
2006,04,24,06,49,6.10
2006,04,24,06,50,6.20
2006,04,24,06,51,6.20
2006,04,24,06,52,6.20
2006,04,24,06,53,6.30
2006,04,24,06,54,6.30
2006,04,24,06,55,6.30
2006,04,24,06,56,6.30
2006,04,24,06,57,6.40
2006,04,24,06,58,6.40
2006,04,24,06,59,6.40
2006,04,24,07,00,6.40
2006,04,24,07,01,6.40
2006,04,24,07,02,6.40
2006,04,24,07,03,6.50
2006,04,24,07,04,6.60
2006,04,24,07,05,6.60
2006,04,24,07,06,6.70
2006,04,24,07,07,6.70
2006,04,24,07,08,6.80
2006,04,24,07,09,6.80
2006,04,24,07,10,6.90
2006,04,24,07,11,7.00
2006,04,24,07,12,7.10
2006,04,24,07,13,7.10
2006,04,24,07,14,7.20
2006,04,24,07,15,7.30
2006,04,24,07,16,7.30
2006,04,24,07,17,7.40
2006,04,24,07,18,7.40
2006,04,24,07,19,7.50
2006,04,24,07,20,7.50
2006,04,24,07,21,7.60
2006,04,24,07,22,7.60
2006,04,24,07,23,7.70
2006,04,24,07,24,7.80
2006,04,24,07,25,7.80
2006,04,24,07,26,7.80
2006,04,24,07,27,7.90
2006,04,24,07,28,7.90
2006,04,24,07,29,8.00
2006,04,24,07,30,8.00
2006,04,24,07,31,8.10
2006,04,24,07,32,8.10
2006,04,24,07,33,8.20
2006,04,24,07,34,8.20
2006,04,24,07,35,8.30
2006,04,24,07,36,8.40
2006,04,24,07,37,8.50
2006,04,24,07,38,8.60
2006,04,24,07,39,8.70
2006,04,24,07,40,8.80
2006,04,24,07,41,8.90
2006,04,24,07,42,9.00
2006,04,24,07,43,9.00
2006,04,24,07,44,9.10
2006,04,24,07,45,9.20
2006,04,24,07,46,9.30
2006,04,24,07,47,9.40
2006,04,24,07,48,9.50
2006,04,24,07,49,9.60
2006,04,24,07,50,9.70
2006,04,24,07,51,9.80
2006,04,24,07,52,9.90
2006,04,24,07,53,9.90
2006,04,24,07,54,10.00
2006,04,24,07,55,10.10
2006,04,24,07,56,10.10
2006,04,24,07,57,10.20
2006,04,24,07,58,10.20
2006,04,24,07,59,10.30
2006,04,24,08,00,10.40
2006,04,24,08,01,10.50
2006,04,24,08,02,10.60
2006,04,24,08,03,10.60
2006,04,24,08,04,10.70
2006,04,24,08,05,10.80
2006,04,24,08,06,10.90
2006,04,24,08,07,10.90
2006,04,24,08,08,11.00
2006,04,24,08,09,11.10
2006,04,24,08,10,11.20
2006,04,24,08,11,11.20
2006,04,24,08,12,11.30
2006,04,24,08,13,11.40
2006,04,24,08,14,11.50
2006,04,24,08,15,11.60
2006,04,24,08,16,11.60
2006,04,24,08,17,11.70
2006,04,24,08,18,11.80
2006,04,24,08,19,11.90
2006,04,24,08,20,12.00
2006,04,24,08,21,12.10
2006,04,24,08,22,12.20
2006,04,24,08,23,12.30
2006,04,24,08,24,12.30
2006,04,24,08,25,12.40
2006,04,24,08,26,12.50
2006,04,24,08,27,12.60
2006,04,24,08,28,12.70
2006,04,24,08,29,12.80
2006,04,24,08,30,12.80
2006,04,24,08,31,13.00
2006,04,24,08,32,13.20
2006,04,24,08,33,13.30
2006,04,24,08,34,13.50
2006,04,24,08,35,13.70
2006,04,24,08,36,13.80
2006,04,24,08,37,14.00
2006,04,24,08,38,14.20
2006,04,24,08,39,14.40
2006,04,24,08,40,14.50
2006,04,24,08,41,14.70
2006,04,24,08,42,14.80
2006,04,24,08,43,14.90
2006,04,24,08,44,15.00
2006,04,24,08,45,15.20
2006,04,24,08,46,15.20
2006,04,24,08,47,15.30
2006,04,24,08,48,15.40
2006,04,24,08,49,15.50
2006,04,24,08,50,15.50
2006,04,24,08,51,15.60
2006,04,24,08,52,15.70
2006,04,24,08,53,15.70
2006,04,24,08,54,15.70
2006,04,24,08,55,15.80
2006,04,24,08,56,15.80
2006,04,24,08,57,15.80
2006,04,24,08,58,15.80
2006,04,24,08,59,15.80
2006,04,24,09,00,15.90
2006,04,24,09,01,15.90
2006,04,24,09,02,16.00
2006,04,24,09,03,16.10
2006,04,24,09,04,16.10
2006,04,24,09,05,16.20
2006,04,24,09,06,16.30
2006,04,24,09,07,16.40
2006,04,24,09,08,16.40
2006,04,24,09,09,16.50
2006,04,24,09,10,16.60
2006,04,24,09,11,16.70
2006,04,24,09,12,16.70
2006,04,24,09,13,16.70
2006,04,24,09,14,16.70
2006,04,24,09,15,16.70
2006,04,24,09,16,16.70
2006,04,24,09,17,16.70
2006,04,24,09,18,16.70
2006,04,24,09,19,16.70
2006,04,24,09,20,16.70
2006,04,24,09,21,16.70
2006,04,24,09,22,16.60
2006,04,24,09,23,16.60
2006,04,24,09,24,16.50
2006,04,24,09,25,16.40
2006,04,24,09,26,16.40
2006,04,24,09,27,16.50
2006,04,24,09,28,16.60
2006,04,24,09,29,16.60
2006,04,24,09,30,16.50
2006,04,24,09,31,16.40
2006,04,24,09,32,16.40
2006,04,24,09,33,16.40
2006,04,24,09,34,16.30
2006,04,24,09,35,16.30
2006,04,24,09,36,16.30
2006,04,24,09,37,16.30
2006,04,24,09,38,16.30
2006,04,24,09,39,16.30
2006,04,24,09,40,16.30
2006,04,24,09,41,16.30
2006,04,24,09,42,16.30
2006,04,24,09,43,16.40
2006,04,24,09,44,16.40
2006,04,24,09,45,16.40
2006,04,24,09,46,16.50
2006,04,24,09,47,16.60
2006,04,24,09,48,16.60
2006,04,24,09,49,16.60
2006,04,24,09,50,16.60
2006,04,24,09,51,16.70
2006,04,24,09,52,16.70
2006,04,24,09,53,16.70
2006,04,24,09,54,16.70
2006,04,24,09,55,16.70
2006,04,24,09,56,16.60
2006,04,24,09,57,16.60
2006,04,24,09,58,16.60
2006,04,24,09,59,16.60
2006,04,24,10,00,16.60
2006,04,24,10,01,16.60
2006,04,24,10,02,16.70
2006,04,24,10,03,16.70
2006,04,24,10,04,16.70
2006,04,24,10,05,16.70
2006,04,24,10,06,16.70
2006,04,24,10,07,16.70
2006,04,24,10,08,16.80
2006,04,24,10,09,16.80
2006,04,24,10,10,16.80
2006,04,24,10,11,16.90
2006,04,24,10,12,16.90
2006,04,24,10,13,17.00
2006,04,24,10,14,17.00
2006,04,24,10,15,16.90
2006,04,24,10,16,16.90
2006,04,24,10,17,16.90
2006,04,24,10,18,16.90
2006,04,24,10,19,16.90
2006,04,24,10,20,16.90
2006,04,24,10,21,17.00
2006,04,24,10,22,17.00
2006,04,24,10,23,17.00
2006,04,24,10,24,17.10
2006,04,24,10,25,17.10
2006,04,24,10,26,17.20
2006,04,24,10,27,17.30
2006,04,24,10,28,17.30
2006,04,24,10,29,17.40
2006,04,24,10,30,17.40
2006,04,24,10,31,17.50
2006,04,24,10,32,17.50
2006,04,24,10,33,17.60
2006,04,24,10,34,17.60
2006,04,24,10,35,17.60
2006,04,24,10,36,17.60
2006,04,24,10,37,17.60
2006,04,24,10,38,17.70
2006,04,24,10,39,17.80
2006,04,24,10,40,17.80
2006,04,24,10,41,17.90
2006,04,24,10,42,17.90
2006,04,24,10,43,18.00
2006,04,24,10,44,18.10
2006,04,24,10,45,18.20
2006,04,24,10,46,18.30
2006,04,24,10,47,18.40
2006,04,24,10,48,18.40
2006,04,24,10,49,18.40
2006,04,24,10,50,18.40
2006,04,24,10,51,18.40
2006,04,24,10,52,18.40
2006,04,24,10,53,18.40
2006,04,24,10,54,18.50
2006,04,24,10,55,18.60
2006,04,24,10,56,18.60
2006,04,24,10,57,18.60
2006,04,24,10,58,18.70
2006,04,24,10,59,18.80
2006,04,24,11,00,18.90
2006,04,24,11,01,18.90
2006,04,24,11,02,19.10
2006,04,24,11,03,19.10
2006,04,24,11,04,19.20
2006,04,24,11,05,19.30
2006,04,24,11,06,19.30
2006,04,24,11,07,19.40
2006,04,24,11,08,19.40
2006,04,24,11,09,19.40
2006,04,24,11,10,19.30
2006,04,24,11,11,19.20
2006,04,24,11,12,19.20
2006,04,24,11,13,19.20
2006,04,24,11,14,19.30
2006,04,24,11,15,19.30
2006,04,24,11,16,19.30
2006,04,24,11,17,19.20
2006,04,24,11,18,19.20
2006,04,24,11,19,19.30
2006,04,24,11,20,19.30
2006,04,24,11,21,19.40
2006,04,24,11,22,19.50
2006,04,24,11,23,19.50
2006,04,24,11,24,19.50
2006,04,24,11,25,19.50
2006,04,24,11,26,19.50
2006,04,24,11,27,19.50
2006,04,24,11,28,19.50
2006,04,24,11,29,19.40
2006,04,24,11,30,19.50
2006,04,24,11,31,19.50
2006,04,24,11,32,19.60
2006,04,24,11,33,19.70
2006,04,24,11,34,19.80
2006,04,24,11,35,19.80
2006,04,24,11,36,19.90
2006,04,24,11,37,19.90
2006,04,24,11,38,19.90
2006,04,24,11,39,19.90
2006,04,24,11,40,20.00
2006,04,24,11,41,20.10
2006,04,24,11,42,20.20
2006,04,24,11,43,20.30
2006,04,24,11,44,20.30
2006,04,24,11,45,20.30
2006,04,24,11,46,20.30
2006,04,24,11,47,20.30
2006,04,24,11,48,20.40
2006,04,24,11,49,20.40
2006,04,24,11,50,20.40
2006,04,24,11,51,20.50
2006,04,24,11,52,20.40
2006,04,24,11,53,20.40
2006,04,24,11,54,20.50
2006,04,24,11,55,20.50
2006,04,24,11,56,20.60
2006,04,24,11,57,20.60
2006,04,24,11,58,20.60
2006,04,24,11,59,20.70
2006,04,24,12,00,20.70
2006,04,24,12,01,20.80
2006,04,24,12,02,20.80
2006,04,24,12,03,20.80
2006,04,24,12,04,20.70
2006,04,24,12,05,20.60
2006,04,24,12,06,20.50
2006,04,24,12,07,20.50
2006,04,24,12,08,20.50
2006,04,24,12,09,20.50
2006,04,24,12,10,20.60
2006,04,24,12,11,20.70
2006,04,24,12,12,20.80
2006,04,24,12,13,20.90
2006,04,24,12,14,21.00
2006,04,24,12,15,21.00
2006,04,24,12,16,21.10
2006,04,24,12,17,21.10
2006,04,24,12,18,21.10
2006,04,24,12,19,21.10
2006,04,24,12,20,21.20
2006,04,24,12,21,21.20
2006,04,24,12,22,21.20
2006,04,24,12,23,21.10
2006,04,24,12,24,21.10
2006,04,24,12,25,21.20
2006,04,24,12,26,21.20
2006,04,24,12,27,21.20
2006,04,24,12,28,21.20
2006,04,24,12,29,21.20
2006,04,24,12,30,21.30
2006,04,24,12,31,21.30
2006,04,24,12,32,21.30
2006,04,24,12,33,21.20
2006,04,24,12,34,21.20
2006,04,24,12,35,21.30
2006,04,24,12,36,21.30
2006,04,24,12,37,21.40
2006,04,24,12,38,21.40
2006,04,24,12,39,21.60
2006,04,24,12,40,21.60
2006,04,24,12,41,21.70
2006,04,24,12,42,21.70
2006,04,24,12,43,21.70
2006,04,24,12,44,21.70
2006,04,24,12,45,21.70
2006,04,24,12,46,21.80
2006,04,24,12,47,21.80
2006,04,24,12,48,21.90
2006,04,24,12,49,22.00
2006,04,24,12,50,22.10
2006,04,24,12,51,22.10
2006,04,24,12,52,22.20
2006,04,24,12,53,22.30
2006,04,24,12,54,22.30
2006,04,24,12,55,22.30
2006,04,24,12,56,22.40
2006,04,24,12,57,22.40
2006,04,24,12,58,22.50
2006,04,24,12,59,22.60
2006,04,24,13,00,22.60
2006,04,24,13,01,22.60
2006,04,24,13,02,22.40
2006,04,24,13,03,22.20
2006,04,24,13,04,22.00
2006,04,24,13,05,21.90
2006,04,24,13,06,21.90
2006,04,24,13,07,21.80
2006,04,24,13,08,21.70
2006,04,24,13,09,21.60
2006,04,24,13,10,21.40
2006,04,24,13,11,21.10
2006,04,24,13,12,20.90
2006,04,24,13,13,20.80
2006,04,24,13,14,20.80
2006,04,24,13,15,20.80
2006,04,24,13,16,20.80
2006,04,24,13,17,20.90
2006,04,24,13,18,20.90
2006,04,24,13,19,20.90
2006,04,24,13,20,20.80
2006,04,24,13,21,20.60
2006,04,24,13,22,20.50
2006,04,24,13,23,20.40
2006,04,24,13,24,20.50
2006,04,24,13,25,20.50
2006,04,24,13,26,20.60
2006,04,24,13,27,20.60
2006,04,24,13,28,20.60
2006,04,24,13,29,20.50
2006,04,24,13,30,20.50
2006,04,24,13,31,20.50
2006,04,24,13,32,20.60
2006,04,24,13,33,20.70
2006,04,24,13,34,20.70
2006,04,24,13,35,20.70
2006,04,24,13,36,20.60
2006,04,24,13,37,20.50
2006,04,24,13,38,20.40
2006,04,24,13,39,20.20
2006,04,24,13,40,20.10
2006,04,24,13,41,19.90
2006,04,24,13,42,19.90
2006,04,24,13,43,20.00
2006,04,24,13,44,20.10
2006,04,24,13,45,20.10
2006,04,24,13,46,20.20
2006,04,24,13,47,20.10
2006,04,24,13,48,20.20
2006,04,24,13,49,20.20
2006,04,24,13,50,20.20
2006,04,24,13,51,20.30
2006,04,24,13,52,20.40
2006,04,24,13,53,20.50
2006,04,24,13,54,20.50
2006,04,24,13,55,20.50
2006,04,24,13,56,20.50
2006,04,24,13,57,20.60
2006,04,24,13,58,20.80
2006,04,24,13,59,20.80
2006,04,24,14,00,20.80
2006,04,24,14,01,20.60
2006,04,24,14,02,20.60
2006,04,24,14,03,20.70
2006,04,24,14,04,20.80
2006,04,24,14,05,20.90
2006,04,24,14,06,21.00
2006,04,24,14,07,21.10
2006,04,24,14,08,21.20
2006,04,24,14,09,21.30
2006,04,24,14,10,21.40
2006,04,24,14,11,21.60
2006,04,24,14,12,21.70
2006,04,24,14,13,21.80
2006,04,24,14,14,22.00
2006,04,24,14,15,22.10
2006,04,24,14,16,22.10
2006,04,24,14,17,22.20
2006,04,24,14,18,22.20
2006,04,24,14,19,22.30
2006,04,24,14,20,22.30
2006,04,24,14,21,22.30
2006,04,24,14,22,22.40
2006,04,24,14,23,22.40
2006,04,24,14,24,22.50
2006,04,24,14,25,22.60
2006,04,24,14,26,22.70
2006,04,24,14,27,22.80
2006,04,24,14,28,22.90
2006,04,24,14,29,22.90
2006,04,24,14,30,23.00
2006,04,24,14,31,23.10
2006,04,24,14,32,23.10
2006,04,24,14,33,23.20
2006,04,24,14,34,23.30
2006,04,24,14,35,23.30
2006,04,24,14,36,23.30
2006,04,24,14,37,23.30
2006,04,24,14,38,23.20
2006,04,24,14,39,23.20
2006,04,24,14,40,23.20
2006,04,24,14,41,23.20
2006,04,24,14,42,23.00
2006,04,24,14,43,22.60
2006,04,24,14,44,22.30
2006,04,24,14,45,22.10
2006,04,24,14,46,22.00
2006,04,24,14,47,21.60
2006,04,24,14,48,21.50
2006,04,24,14,49,21.30
2006,04,24,14,50,21.30
2006,04,24,14,51,21.30
2006,04,24,14,52,21.30
2006,04,24,14,53,21.30
2006,04,24,14,54,21.40
2006,04,24,14,55,21.50
2006,04,24,14,56,21.50
2006,04,24,14,57,21.30
2006,04,24,14,58,21.30
2006,04,24,14,59,21.20
2006,04,24,15,00,21.10
2006,04,24,15,01,21.10
2006,04,24,15,02,21.10
2006,04,24,15,03,21.20
2006,04,24,15,04,21.20
2006,04,24,15,05,21.20
2006,04,24,15,06,21.30
2006,04,24,15,07,21.30
2006,04,24,15,08,21.30
2006,04,24,15,09,21.30
2006,04,24,15,10,21.20
2006,04,24,15,11,21.20
2006,04,24,15,12,21.20
2006,04,24,15,13,21.10
2006,04,24,15,14,21.00
2006,04,24,15,15,20.80
2006,04,24,15,16,20.70
2006,04,24,15,17,20.50
2006,04,24,15,18,20.40
2006,04,24,15,19,20.40
2006,04,24,15,20,20.40
2006,04,24,15,21,20.30
2006,04,24,15,22,20.20
2006,04,24,15,23,20.30
2006,04,24,15,24,20.40
2006,04,24,15,25,20.50
2006,04,24,15,26,20.60
2006,04,24,15,27,20.70
2006,04,24,15,35,21.80
2006,04,24,15,36,21.80
2006,04,24,15,37,21.90
2006,04,24,15,38,21.90
2006,04,24,15,39,21.90
2006,04,24,15,40,21.90
2006,04,24,15,41,21.80
2006,04,24,15,42,21.80
2006,04,24,15,43,21.60
2006,04,24,15,44,21.50
2006,04,24,15,45,21.20
2006,04,24,15,46,21.00
2006,04,24,15,47,21.00
2006,04,24,15,48,20.90
2006,04,24,15,49,20.80
2006,04,24,15,50,20.50
2006,04,24,15,51,20.30
2006,04,24,15,52,20.20
2006,04,24,15,53,20.20
2006,04,24,15,54,20.20
2006,04,24,15,55,20.40
2006,04,24,15,56,20.50
2006,04,24,15,57,20.60
2006,04,24,15,58,20.70
2006,04,24,15,59,20.80
2006,04,24,16,00,20.90
2006,04,24,16,01,21.00
2006,04,24,16,02,21.00
2006,04,24,16,03,21.10
2006,04,24,16,04,21.10
2006,04,24,16,05,21.20
2006,04,24,16,06,21.20
2006,04,24,16,07,21.10
2006,04,24,16,08,21.00
2006,04,24,16,09,20.90
2006,04,24,16,10,20.90
2006,04,24,16,11,20.90
2006,04,24,16,12,21.00
2006,04,24,16,13,20.90
2006,04,24,16,14,20.90
2006,04,24,16,15,20.90
2006,04,24,16,16,21.00
2006,04,24,16,17,21.00
2006,04,24,16,18,21.00
2006,04,24,16,19,21.10
2006,04,24,16,20,21.10
2006,04,24,16,21,21.30
2006,04,24,16,22,21.30
2006,04,24,16,23,21.40
2006,04,24,16,24,21.50
2006,04,24,16,25,21.60
2006,04,24,16,26,21.60
2006,04,24,16,27,21.70
2006,04,24,16,28,21.80
2006,04,24,16,29,21.80
2006,04,24,16,30,21.80
2006,04,24,16,31,21.70
2006,04,24,16,32,21.60
2006,04,24,16,33,21.70
2006,04,24,16,34,21.80
2006,04,24,16,35,21.90
2006,04,24,16,36,22.00
2006,04,24,16,37,22.10
2006,04,24,16,38,22.10
2006,04,24,16,39,22.20
2006,04,24,16,40,22.20
2006,04,24,16,41,22.20
2006,04,24,16,42,22.30
2006,04,24,16,43,22.40
2006,04,24,16,44,22.50
2006,04,24,16,45,22.70
2006,04,24,16,46,22.90
2006,04,24,16,47,23.00
2006,04,24,16,48,23.20
2006,04,24,16,49,23.30
2006,04,24,16,50,23.20
2006,04,24,16,51,23.10
2006,04,24,16,52,23.10
2006,04,24,16,53,23.10
2006,04,24,16,54,23.10
2006,04,24,16,55,23.00
2006,04,24,16,56,22.90
2006,04,24,16,57,23.00
2006,04,24,16,58,23.10
2006,04,24,16,59,23.10
2006,04,24,17,00,23.10
2006,04,24,17,01,23.00
2006,04,24,17,02,22.80
2006,04,24,17,03,22.70
2006,04,24,17,04,22.60
2006,04,24,17,05,22.50
2006,04,24,17,06,22.40
2006,04,24,17,07,22.40
2006,04,24,17,08,22.30
2006,04,24,17,09,22.30
2006,04,24,17,10,22.30
2006,04,24,17,11,22.30
2006,04,24,17,12,22.30
2006,04,24,17,13,22.30
2006,04,24,17,14,22.20
2006,04,24,17,15,22.30
2006,04,24,17,16,22.30
2006,04,24,17,17,22.30
2006,04,24,17,18,22.30
2006,04,24,17,19,22.40
2006,04,24,17,20,22.30
2006,04,24,17,21,22.30
2006,04,24,17,22,22.30
2006,04,24,17,23,22.20
2006,04,24,17,24,22.20
2006,04,24,17,25,22.20
2006,04,24,17,26,22.10
2006,04,24,17,27,22.10
2006,04,24,17,28,22.20
2006,04,24,17,29,22.20
2006,04,24,17,30,22.20
2006,04,24,17,31,22.30
2006,04,24,17,32,22.20
2006,04,24,17,33,22.30
2006,04,24,17,34,22.30
2006,04,24,17,35,22.30
2006,04,24,17,36,22.40
2006,04,24,17,37,22.40
2006,04,24,17,38,22.40
2006,04,24,17,39,22.40
2006,04,24,17,40,22.30
2006,04,24,17,41,22.30
2006,04,24,17,42,22.20
2006,04,24,17,43,22.10
2006,04,24,17,44,22.10
2006,04,24,17,45,22.00
2006,04,24,17,46,22.00
2006,04,24,17,47,22.00